Location: Beadle
(51.4667°N, 109.0000°W)
Time: 11:38:03
(UTC+00:00)

Envisat - Pass Details

Date: 18 January 2022
Orbit: 764 x 765 km, 98.2° (Epoch: 22 May)

Event Time Altitude Azimuth Distance (km) Brightness Sun altitude
Rises 12:33:41 0° 13° (NNE) 3,244 6.4 -24.0°
Reaches altitude 10° 12:35:59 10° 12° (NNE) 2,313 5.6 -23.6°
Maximum altitude 12:41:05 78° 288° (WNW) 787 2.8 -22.9°
Drops below altitude 10° 12:46:09 10° 202° (SSW) 2,297 5.3 -22.1°
Sets 12:48:26 0° 201° (SSW) 3,219 6.1 -21.7°
